Starlink 30897

operational
NORAD ID: 58360 Int'l Des: 2023-177 Owner: SPXS Country: US Constellation: starlink
LEOCIRCULAR

Starlink 30897について

説明を読み込み中...

リアルタイム位置

3D地球を読み込み中...

次回通過

高度履歴

Altitude vs Time

uPlot chart will show altitude changes over time

軌道要素

1 58360U 23177K 25349.67685412 .00000053 00000-0 19034-4 0 9993
2 58360 43.0036 88.4691 0001439 268.2433 91.8245 15.02534048115571
Epoch: Dec 15, 2025 • Age: 23 hours

現在のステータス

高度 558.9 km
速度 7.58 km/s
衛星直下点 -0.06°S, 52.91°W
打ち上げ日 Nov 18, 2023
運用期間 2 years
タイプ internet

技術仕様

分類 Payload
質量 730.00 kg
乾燥質量 700.00 kg
総質量 730.00 kg
長さ 0.30 m
直径 4.10 m
スパン 29.00 m
形状 Box + pan
製造者 SPXS
バスタイプ Starlink V2M
フェーズステータス In Orbit
所有者/国 SPXS/US

大規模コンステレーション

Loading constellations...